Time,TemperatureF,DewpointF,PressureIn,WindDirection,WindDirectionDegrees,WindSpeedMPH,WindSpeedGustMPH,Humidity,HourlyPrecipIn,Conditions,Clouds,dailyrainin,SoftwareType,DateUTC
2013-02-13 00:01:00,30.0,24.0,-100.00,SE,128,3.0,4.0,77,0.00,,,-99.99,,2013-02-13 07:01:00,
2013-02-13 00:11:00,30.0,24.0,-100.00,ESE,103,2.0,3.0,77,0.00,,,-99.99,,2013-02-13 07:11:00,
2013-02-13 00:21:00,30.0,24.0,-100.00,ESE,103,2.0,3.0,77,0.00,,,-99.99,,2013-02-13 07:21:00,
2013-02-13 00:31:00,30.0,24.0,-100.00,ESE,103,2.0,3.0,77,0.00,,,-99.99,,2013-02-13 07:31:00,
2013-02-13 00:41:00,30.0,24.0,-100.00,ESE,116,2.0,3.0,77,0.00,,,-99.99,,2013-02-13 07:41:00,
2013-02-13 00:52:00,31.0,24.0,-100.00,ESE,109,5.0,6.0,75,0.00,,,-99.99,,2013-02-13 07:52:00,
2013-02-13 01:01:00,31.0,24.0,-100.00,ESE,109,5.0,6.0,75,0.00,,,-99.99,,2013-02-13 08:01:00,
2013-02-13 01:11:00,31.0,24.0,-100.00,ESE,109,5.0,6.0,75,0.00,,,-99.99,,2013-02-13 08:11:00,
2013-02-13 01:21:00,31.0,24.0,-100.00,ESE,120,4.0,6.0,76,0.00,,,-99.99,,2013-02-13 08:21:00,
2013-02-13 01:31:00,31.0,24.0,-100.00,ESE,120,4.0,6.0,76,0.00,,,-99.99,,2013-02-13 08:31:00,
2013-02-13 01:43:00,31.0,24.0,-100.00,ESE,109,4.0,5.0,75,0.00,,,-99.99,,2013-02-13 08:43:00,
2013-02-13 01:52:00,31.0,24.0,-100.00,ESE,117,5.0,7.0,76,0.00,,,-99.99,,2013-02-13 08:52:00,
2013-02-13 02:01:00,31.0,24.0,-100.00,ESE,117,5.0,7.0,76,0.00,,,-99.99,,2013-02-13 09:01:00,
2013-02-13 02:11:00,30.0,24.0,-100.00,ESE,112,4.0,6.0,76,0.00,,,-99.99,,2013-02-13 09:11:00,
2013-02-13 02:21:00,30.0,24.0,-100.00,ESE,112,4.0,6.0,76,0.00,,,-99.99,,2013-02-13 09:21:00,
2013-02-13 02:31:00,30.0,24.0,-100.00,ESE,112,4.0,6.0,76,0.00,,,-99.99,,2013-02-13 09:31:00,
2013-02-13 02:41:00,31.0,24.0,-100.00,ESE,107,4.0,7.0,77,0.00,,,-99.99,,2013-02-13 09:41:00,
2013-02-13 02:52:00,31.0,24.0,-100.00,ESE,104,4.0,5.0,78,0.00,,,-99.99,,2013-02-13 09:52:00,
2013-02-13 03:01:00,31.0,24.0,-100.00,ESE,104,4.0,5.0,78,0.00,,,-99.99,,2013-02-13 10:01:00,
2013-02-13 03:11:00,31.0,24.0,-100.00,ESE,104,4.0,5.0,78,0.00,,,-99.99,,2013-02-13 10:11:00,
2013-02-13 03:21:00,31.0,25.0,-100.00,ESE,121,3.0,5.0,78,0.00,,,-99.99,,2013-02-13 10:21:00,
2013-02-13 03:31:00,31.0,25.0,-100.00,ESE,121,3.0,5.0,78,0.00,,,-99.99,,2013-02-13 10:31:00,
2013-02-13 03:42:00,31.0,25.0,-100.00,East,96,1.0,2.0,79,0.00,,,-99.99,,2013-02-13 10:42:00,
2013-02-13 03:52:00,31.0,25.0,-100.00,East,96,1.0,2.0,79,0.00,,,-99.99,,2013-02-13 10:52:00,
2013-02-13 04:01:00,31.0,25.0,-100.00,East,96,1.0,2.0,79,0.00,,,-99.99,,2013-02-13 11:01:00,
2013-02-13 04:11:00,30.0,25.0,-100.00,ESE,103,2.0,4.0,81,0.00,,,-99.99,,2013-02-13 11:11:00,
2013-02-13 04:22:00,30.0,26.0,-100.00,ESE,107,4.0,7.0,82,0.00,,,-99.99,,2013-02-13 11:22:00,
2013-02-13 04:32:00,30.0,26.0,-100.00,ESE,107,4.0,7.0,82,0.00,,,-99.99,,2013-02-13 11:32:00,
2013-02-13 04:42:00,31.0,26.0,-100.00,ESE,119,5.0,8.0,81,0.00,,,-99.99,,2013-02-13 11:42:00,
2013-02-13 04:52:00,31.0,26.0,-100.00,ESE,107,3.0,5.0,82,0.00,,,-99.99,,2013-02-13 11:52:00,
2013-02-13 05:02:00,31.0,26.0,-100.00,ESE,107,3.0,5.0,82,0.00,,,-99.99,,2013-02-13 12:02:00,
2013-02-13 05:11:00,31.0,26.0,-100.00,East,89,4.0,6.0,82,0.00,,,-99.99,,2013-02-13 12:11:00,
2013-02-13 05:21:00,31.0,26.0,-100.00,ESE,114,6.0,9.0,83,0.00,,,-99.99,,2013-02-13 12:21:00,
2013-02-13 05:31:00,31.0,26.0,-100.00,ESE,114,6.0,9.0,83,0.00,,,-99.99,,2013-02-13 12:31:00,
2013-02-13 05:42:00,31.0,26.0,-100.00,ENE,72,2.0,3.0,83,0.00,,,-99.99,,2013-02-13 12:42:00,
2013-02-13 05:52:00,30.0,26.0,-100.00,East,88,1.0,2.0,84,0.00,,,-99.99,,2013-02-13 12:52:00,
2013-02-13 06:02:00,30.0,26.0,-100.00,East,88,1.0,2.0,84,0.00,,,-99.99,,2013-02-13 13:02:00,
2013-02-13 06:11:00,31.0,26.0,-100.00,SE,130,3.0,6.0,82,0.00,,,-99.99,,2013-02-13 13:11:00,
2013-02-13 06:21:00,31.0,26.0,-100.00,East,95,1.0,4.0,82,0.00,,,-99.99,,2013-02-13 13:21:00,
2013-02-13 06:31:00,31.0,26.0,-100.00,East,95,1.0,4.0,82,0.00,,,-99.99,,2013-02-13 13:31:00,
2013-02-13 06:41:00,32.0,27.0,-100.00,ESE,102,4.0,6.0,79,0.00,,,-99.99,,2013-02-13 13:41:00,
2013-02-13 06:52:00,31.0,27.0,-100.00,SSE,151,3.0,5.0,82,0.00,,,-99.99,,2013-02-13 13:52:00,
2013-02-13 07:01:00,31.0,27.0,-100.00,SSE,151,3.0,5.0,82,0.00,,,-99.99,,2013-02-13 14:01:00,
2013-02-13 07:11:00,31.0,27.0,-100.00,SSE,151,3.0,5.0,82,0.00,,,-99.99,,2013-02-13 14:11:00,
2013-02-13 07:21:00,31.0,26.0,-100.00,SE,124,1.0,2.0,81,0.00,,,-99.99,,2013-02-13 14:21:00,
2013-02-13 07:31:00,31.0,26.0,-100.00,SE,124,1.0,2.0,81,0.00,,,-99.99,,2013-02-13 14:31:00,
2013-02-13 07:41:00,32.0,27.0,-100.00,ESE,106,3.0,5.0,81,0.00,,,-99.99,,2013-02-13 14:41:00,
2013-02-13 07:52:00,32.0,27.0,-100.00,ESE,106,3.0,5.0,81,0.00,,,-99.99,,2013-02-13 14:52:00,
2013-02-13 08:01:00,32.0,27.0,-100.00,ESE,106,3.0,5.0,81,0.00,,,-99.99,,2013-02-13 15:01:00,
2013-02-13 08:11:00,32.0,27.0,-100.00,NE,37,3.0,4.0,82,0.00,,,-99.99,,2013-02-13 15:11:00,
2013-02-13 08:21:00,32.0,27.0,-100.00,SE,131,1.0,3.0,81,0.00,,,-99.99,,2013-02-13 15:21:00,
2013-02-13 08:32:00,32.0,27.0,-100.00,SE,131,1.0,3.0,81,0.00,,,-99.99,,2013-02-13 15:32:00,
2013-02-13 08:42:00,31.0,27.0,-100.00,ESE,119,5.0,7.0,82,0.00,,,-99.99,,2013-02-13 15:42:00,
2013-02-13 08:52:00,32.0,27.0,-100.00,ESE,112,5.0,6.0,82,0.00,,,-99.99,,2013-02-13 15:52:00,
2013-02-13 09:01:00,32.0,27.0,-100.00,ESE,112,5.0,6.0,82,0.00,,,-99.99,,2013-02-13 16:01:00,
2013-02-13 09:11:00,32.0,27.0,-100.00,SE,127,5.0,8.0,81,0.00,,,-99.99,,2013-02-13 16:11:00,
2013-02-13 09:21:00,32.0,27.0,-100.00,SE,127,5.0,8.0,81,0.00,,,-99.99,,2013-02-13 16:21:00,
2013-02-13 09:31:00,32.0,27.0,-100.00,SE,127,5.0,8.0,81,0.00,,,-99.99,,2013-02-13 16:31:00,
2013-02-13 09:41:00,32.0,27.0,-100.00,ESE,104,4.0,7.0,81,0.00,,,-99.99,,2013-02-13 16:41:00,
2013-02-13 09:52:00,32.0,27.0,-100.00,South,191,1.0,2.0,81,0.00,,,-99.99,,2013-02-13 16:52:00,
2013-02-13 10:01:00,32.0,27.0,-100.00,South,191,1.0,2.0,81,0.00,,,-99.99,,2013-02-13 17:01:00,
2013-02-13 10:11:00,34.0,27.0,-100.00,West,261,1.0,2.0,78,0.00,,,-99.99,,2013-02-13 17:11:00,
2013-02-13 10:21:00,35.0,27.0,-100.00,WSW,258,2.0,4.0,73,0.00,,,-99.99,,2013-02-13 17:21:00,
2013-02-13 10:31:00,35.0,27.0,-100.00,WSW,258,2.0,4.0,73,0.00,,,-99.99,,2013-02-13 17:31:00,
2013-02-13 10:41:00,35.0,27.0,-100.00,WSW,258,2.0,4.0,73,0.00,,,-99.99,,2013-02-13 17:41:00,
2013-02-13 10:52:00,35.0,27.0,-100.00,West,263,0.0,3.0,72,0.00,,,-99.99,,2013-02-13 17:52:00,
2013-02-13 11:01:00,35.0,27.0,-100.00,West,263,0.0,3.0,72,0.00,,,-99.99,,2013-02-13 18:01:00,
2013-02-13 11:11:00,35.0,27.0,-100.00,WSW,241,2.0,2.0,72,0.00,,,-99.99,,2013-02-13 18:11:00,
2013-02-13 11:22:00,36.0,28.0,-100.00,SSW,193,1.0,2.0,70,0.00,,,-99.99,,2013-02-13 18:22:00,
2013-02-13 11:31:00,36.0,28.0,-100.00,SSW,193,1.0,2.0,70,0.00,,,-99.99,,2013-02-13 18:31:00,
2013-02-13 11:41:00,36.0,28.0,-100.00,SSW,193,1.0,2.0,70,0.00,,,-99.99,,2013-02-13 18:41:00,
2013-02-13 11:52:00,37.0,27.0,-100.00,WSW,243,2.0,3.0,66,0.00,,,-99.99,,2013-02-13 18:52:00,
2013-02-13 12:01:00,37.0,27.0,-100.00,WSW,243,2.0,3.0,66,0.00,,,-99.99,,2013-02-13 19:01:00,
2013-02-13 12:11:00,37.0,27.0,-100.00,West,265,2.0,4.0,65,0.00,,,-99.99,,2013-02-13 19:11:00,
2013-02-13 12:21:00,37.0,26.0,-100.00,WNW,296,2.0,3.0,63,0.00,,,-99.99,,2013-02-13 19:21:00,
2013-02-13 12:31:00,37.0,26.0,-100.00,WNW,296,2.0,3.0,63,0.00,,,-99.99,,2013-02-13 19:31:00,
2013-02-13 12:41:00,38.0,26.0,-100.00,WNW,289,2.0,4.0,62,0.00,,,-99.99,,2013-02-13 19:41:00,
2013-02-13 12:52:00,38.0,26.0,-100.00,WNW,289,2.0,4.0,62,0.00,,,-99.99,,2013-02-13 19:52:00,
2013-02-13 13:01:00,38.0,26.0,-100.00,WNW,289,2.0,4.0,62,0.00,,,-99.99,,2013-02-13 20:01:00,
2013-02-13 13:11:00,37.0,26.0,-100.00,SW,234,1.0,2.0,63,0.00,,,-99.99,,2013-02-13 20:11:00,
2013-02-13 13:21:00,38.0,26.0,-100.00,West,260,1.0,3.0,63,0.00,,,-99.99,,2013-02-13 20:21:00,
2013-02-13 13:31:00,38.0,26.0,-100.00,West,260,1.0,3.0,63,0.00,,,-99.99,,2013-02-13 20:31:00,
2013-02-13 13:42:00,37.0,25.0,-100.00,North,350,3.0,5.0,60,0.00,,,-99.99,,2013-02-13 20:42:00,
2013-02-13 13:52:00,37.0,25.0,-100.00,North,350,3.0,5.0,60,0.00,,,-99.99,,2013-02-13 20:52:00,
2013-02-13 14:01:00,37.0,25.0,-100.00,North,350,3.0,5.0,60,0.00,,,-99.99,,2013-02-13 21:01:00,
2013-02-13 14:11:00,37.0,25.0,-100.00,NW,309,3.0,7.0,62,0.00,,,-99.99,,2013-02-13 21:11:00,
2013-02-13 14:21:00,38.0,26.0,-100.00,SW,229,0.0,2.0,63,0.00,,,-99.99,,2013-02-13 21:21:00,
2013-02-13 14:31:00,38.0,26.0,-100.00,SW,229,0.0,2.0,63,0.00,,,-99.99,,2013-02-13 21:31:00,
2013-02-13 14:42:00,38.0,25.0,-100.00,WSW,248,2.0,4.0,59,0.00,,,-99.99,,2013-02-13 21:42:00,
2013-02-13 14:52:00,38.0,26.0,-100.00,WNW,301,2.0,4.0,62,0.00,,,-99.99,,2013-02-13 21:52:00,
2013-02-13 15:01:00,38.0,26.0,-100.00,WNW,301,2.0,4.0,62,0.00,,,-99.99,,2013-02-13 22:01:00,
2013-02-13 15:11:00,38.0,27.0,-100.00,West,260,1.0,3.0,65,0.00,,,-99.99,,2013-02-13 22:11:00,
2013-02-13 15:21:00,37.0,27.0,-100.00,NW,316,2.0,4.0,66,0.00,,,-99.99,,2013-02-13 22:21:00,
2013-02-13 15:31:00,37.0,27.0,-100.00,NW,316,2.0,4.0,66,0.00,,,-99.99,,2013-02-13 22:31:00,
2013-02-13 15:42:00,37.0,27.0,-100.00,WSW,239,0.0,2.0,66,0.00,,,-99.99,,2013-02-13 22:42:00,
2013-02-13 15:52:00,36.0,27.0,-100.00,West,272,1.0,3.0,67,0.00,,,-99.99,,2013-02-13 22:52:00,
2013-02-13 16:01:00,36.0,27.0,-100.00,West,272,1.0,3.0,67,0.00,,,-99.99,,2013-02-13 23:01:00,
2013-02-13 16:11:00,36.0,27.0,-100.00,WNW,289,2.0,4.0,68,0.00,,,-99.99,,2013-02-13 23:11:00,
2013-02-13 16:21:00,36.0,27.0,-100.00,West,278,1.0,2.0,69,0.00,,,-99.99,,2013-02-13 23:21:00,
2013-02-13 16:31:00,36.0,27.0,-100.00,West,278,1.0,2.0,69,0.00,,,-99.99,,2013-02-13 23:31:00,
2013-02-13 16:41:00,36.0,26.0,-100.00,West,265,1.0,2.0,68,0.00,,,-99.99,,2013-02-13 23:41:00,
2013-02-13 16:52:00,36.0,27.0,-100.00,NE,54,1.0,2.0,69,0.00,,,-99.99,,2013-02-13 23:52:00,
2013-02-13 17:01:00,36.0,27.0,-100.00,NE,54,1.0,2.0,69,0.00,,,-99.99,,2013-02-14 00:01:00,
2013-02-13 17:11:00,35.0,27.0,-100.00,East,86,1.0,2.0,70,0.00,,,-99.99,,2013-02-14 00:11:00,
2013-02-13 17:21:00,35.0,27.0,-100.00,East,86,1.0,2.0,70,0.00,,,-99.99,,2013-02-14 00:21:00,
2013-02-13 17:31:00,35.0,27.0,-100.00,East,86,1.0,2.0,70,0.00,,,-99.99,,2013-02-14 00:31:00,
2013-02-13 17:41:00,35.0,26.0,-100.00,East,92,1.0,2.0,72,0.00,,,-99.99,,2013-02-14 00:41:00,
2013-02-13 17:52:00,34.0,27.0,-100.00,South,179,1.0,3.0,74,0.00,,,-99.99,,2013-02-14 00:52:00,
2013-02-13 18:01:00,34.0,27.0,-100.00,South,179,1.0,3.0,74,0.00,,,-99.99,,2013-02-14 01:01:00,
2013-02-13 18:11:00,34.0,27.0,-100.00,SSW,198,0.0,1.0,75,0.00,,,-99.99,,2013-02-14 01:11:00,
2013-02-13 18:21:00,34.0,26.0,-100.00,ENE,59,0.0,2.0,74,0.00,,,-99.99,,2013-02-14 01:21:00,
2013-02-13 18:31:00,34.0,26.0,-100.00,ENE,59,0.0,2.0,74,0.00,,,-99.99,,2013-02-14 01:31:00,
2013-02-13 18:41:00,33.0,26.0,-100.00,ESE,119,0.0,2.0,75,0.00,,,-99.99,,2013-02-14 01:41:00,
2013-02-13 18:51:00,33.0,26.0,-100.00,NE,44,0.0,2.0,75,0.00,,,-99.99,,2013-02-14 01:51:00,
2013-02-13 19:01:00,33.0,26.0,-100.00,NE,44,0.0,2.0,75,0.00,,,-99.99,,2013-02-14 02:01:00,
2013-02-13 19:11:00,33.0,26.0,-100.00,North,357,0.0,1.0,75,0.00,,,-99.99,,2013-02-14 02:11:00,
2013-02-13 19:21:00,33.0,26.0,-100.00,NW,308,2.0,3.0,75,0.00,,,-99.99,,2013-02-14 02:21:00,
2013-02-13 19:31:00,33.0,26.0,-100.00,NW,308,2.0,3.0,75,0.00,,,-99.99,,2013-02-14 02:31:00,
2013-02-13 19:41:00,33.0,26.0,-100.00,NW,308,2.0,3.0,75,0.00,,,-99.99,,2013-02-14 02:41:00,
2013-02-13 19:51:00,33.0,26.0,-100.00,NW,308,2.0,3.0,75,0.00,,,-99.99,,2013-02-14 02:51:00,
2013-02-13 20:02:00,33.0,26.0,-100.00,ESE,110,1.0,2.0,74,0.00,,,-99.99,,2013-02-14 03:02:00,
2013-02-13 20:11:00,33.0,26.0,-100.00,East,96,0.0,1.0,74,0.00,,,-99.99,,2013-02-14 03:11:00,
2013-02-13 20:21:00,33.0,26.0,-100.00,WNW,298,0.0,1.0,75,0.00,,,-99.99,,2013-02-14 03:21:00,
2013-02-13 20:31:00,33.0,26.0,-100.00,WNW,298,0.0,1.0,75,0.00,,,-99.99,,2013-02-14 03:31:00,
2013-02-13 20:42:00,32.0,25.0,-100.00,ESE,114,0.0,2.0,75,0.00,,,-99.99,,2013-02-14 03:42:00,
2013-02-13 20:52:00,32.0,25.0,-100.00,ESE,114,0.0,2.0,75,0.00,,,-99.99,,2013-02-14 03:52:00,
2013-02-13 21:01:00,32.0,25.0,-100.00,ESE,114,0.0,2.0,75,0.00,,,-99.99,,2013-02-14 04:01:00,
2013-02-13 21:11:00,31.0,25.0,-100.00,East,96,1.0,2.0,76,0.00,,,-99.99,,2013-02-14 04:11:00,
2013-02-13 21:21:00,30.0,24.0,-100.00,ENE,78,1.0,1.0,78,0.00,,,-99.99,,2013-02-14 04:21:00,
2013-02-13 21:31:00,30.0,24.0,-100.00,ENE,78,1.0,1.0,78,0.00,,,-99.99,,2013-02-14 04:31:00,
2013-02-13 21:41:00,30.0,24.0,-100.00,NE,44,0.0,1.0,78,0.00,,,-99.99,,2013-02-14 04:41:00,
2013-02-13 21:51:00,30.0,24.0,-100.00,ESE,103,1.0,2.0,80,0.00,,,-99.99,,2013-02-14 04:51:00,
2013-02-13 22:01:00,30.0,24.0,-100.00,ESE,103,1.0,2.0,80,0.00,,,-99.99,,2013-02-14 05:01:00,
2013-02-13 22:11:00,30.0,24.0,-100.00,ESE,103,1.0,2.0,80,0.00,,,-99.99,,2013-02-14 05:11:00,
2013-02-13 22:21:00,29.0,24.0,-100.00,North,8,0.0,1.0,81,0.00,,,-99.99,,2013-02-14 05:21:00,
2013-02-13 22:31:00,29.0,24.0,-100.00,North,8,0.0,1.0,81,0.00,,,-99.99,,2013-02-14 05:31:00,
2013-02-13 22:41:00,28.0,24.0,-100.00,East,80,1.0,2.0,84,0.00,,,-99.99,,2013-02-14 05:41:00,
2013-02-13 22:52:00,28.0,24.0,-100.00,ENE,65,0.0,0.0,86,0.00,,,-99.99,,2013-02-14 05:52:00,
2013-02-13 23:01:00,28.0,24.0,-100.00,ENE,65,0.0,0.0,86,0.00,,,-99.99,,2013-02-14 06:01:00,
2013-02-13 23:11:00,27.0,24.0,-100.00,NE,55,0.0,0.0,87,0.00,,,-99.99,,2013-02-14 06:11:00,
2013-02-13 23:21:00,27.0,24.0,-100.00,NE,37,0.0,1.0,87,0.00,,,-99.99,,2013-02-14 06:21:00,
2013-02-13 23:31:00,27.0,24.0,-100.00,NE,37,0.0,1.0,87,0.00,,,-99.99,,2013-02-14 06:31:00,
2013-02-13 23:41:00,27.0,24.0,-100.00,NE,54,0.0,1.0,86,0.00,,,-99.99,,2013-02-14 06:41:00,
2013-02-13 23:52:00,27.0,23.0,-100.00,ENE,68,1.0,2.0,86,0.00,,,-99.99,,2013-02-14 06:52:00,